This demonstration page uses our WeatherBlox Daily Observations layout. Learn more.

Left ArrowRight Arrow

34.02893, -84.19858

Hourly Observations for June 14, 2022

Temp ( °F °C ) Dew Point ( °F °C ) Humidity (%) Winds ( mph kmh ) Pressure ( in mb ) Visibility ( mi km ) Precip ( " mm )
12:53 am 00:53 Clear 80 26.7 74 23.3 82 82 Calm 29.98 1015 10 16 0.00 0.00
1:53 am 01:53 Clear 80 26.7 73 22.8 79 79 Calm 29.97 1015 10 16 0.00 0.00
2:53 am 02:53 Clear 78 25.6 73 22.8 85 85 Calm 29.97 1015 10 16 0.00 0.00
3:53 am 03:53 Clear 78 25.6 73 22.8 85 85 Calm 29.96 1015 10 16 0.00 0.00
4:53 am 04:53 Clear 77 25 73 22.8 88 88 WSW 5 7 29.96 1015 10 16 0.00 0.00
5:53 am 05:53 Clear 77 25 72 22.2 85 85 W 3 6 29.97 1015 10 16 0.00 0.00
6:53 am 06:53 Sunny 76 24.4 73 22.8 91 91 Calm 29.98 1015 7 11 0.00 0.00
7:53 am 07:53 Sunny 81 27.2 74 23.3 79 79 Calm 30.00 1016 8 13 0.00 0.00
8:53 am 08:53 Sunny 84 28.9 73 22.8 70 70 W 7 11 30.02 1017 10 16 0.00 0.00
9:53 am 09:53 Sunny 86 30 73 22.8 65 65 NW 8 13 30.04 1017 10 16 0.00 0.00
10:53 am 10:53 Sunny 90 32.2 74 23.3 59 59 NW 8 13 30.05 1018 10 16 0.00 0.00
11:53 am 11:53 Mostly Cloudy 91 32.8 74 23.3 57 57 NNE 8 13 30.06 1018 10 16 0.00 0.00
12:53 pm 12:53 Sunny 93 33.9 73 22.8 52 52 NNW 8 13 30.02 1017 10 16 0.00 0.00
1:53 pm 13:53 Mostly Sunny 95 35 72 22.2 47 47 N 12 19 30.00 1016 10 16 0.00 0.00
2:53 pm 14:53 Sunny 95 35 72 22.2 47 47 NNW 8 13 29.97 1015 10 16 0.00 0.00
3:53 pm 15:53 Sunny 96 35.6 71 21.7 44 44 undefined N/A 29.96 1015 10 16 0.00 0.00
3:54 pm 15:54 Sunny 96 35.6 71 21.7 44 44 NNE 8 13 29.95 1014 10 16 0.00 0.00
4:53 pm 16:53 Mostly Cloudy 95 35 73 22.8 49 49 NNE 8 13 29.96 1014 10 16 0.00 0.00
5:53 pm 17:53 Cloudy 92 33.3 72 22.2 52 52 Calm 29.96 1015 10 16 0.00 0.00
6:53 pm 18:53 Cloudy 90 32.2 75 23.9 62 62 VRB 3 6 29.96 1015 10 16 0.00 0.00
7:53 pm 19:53 Sunny 89 31.7 75 23.9 63 63 S 5 7 29.96 1015 10 16 0.00 0.00
8:53 pm 20:53 Clear 86 30 75 23.9 70 70 S 3 6 29.96 1015 10 16 0.00 0.00
9:53 pm 21:53 Clear 85 29.4 76 24.4 75 75 WSW 3 6 29.98 1015 10 16 0.00 0.00
10:53 pm 22:53 Clear 81 27.2 75 23.9 82 82 SW 5 7 29.99 1016 10 16 0.00 0.00
11:53 pm 23:53 Clear 80 26.7 75 23.9 85 85 SW 3 6 29.99 1016 10 16 0.00 0.00

Powered by AerisWeather